sat.trackr.live / text

‹ back to catalog

STARLINK-5065

NORAD 55641 · 2023-021P

PAYLOAD ACTIVE UNKNOWN

§ Identity

Operator
Country
US
Launch date
2023-02-17
Launch site
AFWTR
Launch vehicle
Mass (kg)
RCS (m²)

Purposes: comms

External: N2YO · Heavens-Above · Gunter

§ Orbital elements

Epoch: 2026-05-25T00:48:54.253728Z

Period
96.11 min
Inclination
69.9995°
Eccentricity
0.0003134
Mean motion
14.98323954 rev/d
Perigee alt
569.9 km
Apogee alt
574.3 km
Semi-major
6,950.2 km
B*
6.2139e-5
RAAN
352.1000°
Arg perigee
267.3107°
Mean anomaly
92.7693°
Rev number
18,022

§ Raw data

STARLINK-50651 55641U 23021P   26145.03396127  .00000648  00000+0  62139-4 0  99902 55641  69.9995 352.1000 0003134 267.3107  92.7693 14.98323954180225

JSON: /api/v1/satellites/55641 · /tle

For live sub-satellite position, see the globe view (requires WebGL).

§ Visibility from observer

Set your observer location to see the next 7 days of passes ≥ 10°. The values pass through the URL so the page stays shareable.

No JS? Fill the form by hand. The geolocation button needs JavaScript.